Location: Noverd
(38.0910°N, 121.6877°W)
Time: 03:31:35
(UTC+00:00)

ISS - Visible Passes

Search period start: 15 April 2026 00:00
Search period end: 25 April 2026 00:00
Orbit: 415 x 424 km, 51.6° (Epoch: 14 April)

Date Brightness Start Highest point End Pass type
(mag) Time Alt. Az. Time Alt. Az. Time Alt. Az.
16 Apr -2.4 12:40:16 10° SSW 12:43:21 34° SE 12:46:27 10° ENE visible
17 Apr -1.6 11:54:36 15° SSE 11:56:05 20° SE 11:58:35 10° E visible
18 Apr -0.8 11:09:19 11° ESE 11:09:19 11° ESE 11:09:52 10° ESE visible
18 Apr -3.7 12:42:17 13° WSW 12:45:14 69° NW 12:48:37 10° NE visible
19 Apr -3.6 11:56:53 41° SSW 11:57:50 65° SE 12:01:11 10° NE visible
20 Apr -2.0 11:11:23 29° E 11:11:23 29° E 11:13:35 10° ENE visible
20 Apr -2.2 12:44:26 10° W 12:47:20 26° NNW 12:50:14 10° NNE visible
21 Apr -2.9 11:58:46 31° WNW 11:59:46 40° NW 12:02:59 10° NE visible
22 Apr -2.7 11:13:07 45° NNE 11:13:07 45° NNE 11:15:38 10° NE visible
22 Apr -1.3 12:47:42 10° NW 12:49:35 14° NNW 12:51:29 10° NNE visible
23 Apr -0.7 10:27:23 16° ENE 10:27:23 16° ENE 10:28:09 10° NE visible
23 Apr -1.6 12:00:20 14° WNW 12:01:54 18° NNW 12:04:21 10° NNE visible
24 Apr -2.0 11:14:33 25° NNW 11:14:33 25° NNW 11:17:08 10° NNE visible
